,,,PA_Meas_PMT16A,,PR_Meas_QMR101_102,,RH_Meas_QMH101,,SR_Meas_QMS101,,TA_Meas_QMH101,,GenWind,,GenWind,
date,time,status,PA,status,PR,status,RH,status,SR,status,TA,status,DirAvg,status,SpdAvg,
2010-11-07, 00:00:05,VALID,1000.9,VALID,0,VALID,93.6383,VALID,0,VALID,23.4671,VALID,135,VALID,0.873047,
2010-11-07, 00:01:05,VALID,1000.91,VALID,0,VALID,93.646,VALID,0,VALID,23.4866,VALID,147,VALID,0.584766,
2010-11-07, 00:02:05,VALID,1000.87,VALID,0,VALID,93.6307,VALID,0,VALID,23.4866,VALID,147,VALID,0.776563,
2010-11-07, 00:03:05,VALID,1000.9,VALID,0,VALID,93.6307,VALID,0,VALID,23.5043,VALID,147,VALID,0.815625,
2010-11-07, 00:04:05,VALID,1000.88,VALID,0,VALID,93.646,VALID,0,VALID,23.5043,VALID,147,VALID,0.993359,
2010-11-07, 00:05:05,VALID,1000.85,VALID,0,VALID,93.6307,VALID,0,VALID,23.5238,VALID,147,VALID,0.990625,
2010-11-07, 00:06:05,VALID,1000.85,VALID,0,VALID,93.6231,VALID,0,VALID,23.5433,VALID,147,VALID,0.831641,
2010-11-07, 00:07:05,VALID,1000.8,VALID,0,VALID,93.6231,VALID,0,VALID,23.5646,VALID,151,VALID,0.689062,
2010-11-07, 00:08:05,VALID,1000.81,VALID,0,VALID,93.6307,VALID,0,VALID,23.5433,VALID,161,VALID,0.942969,
2010-11-07, 00:09:05,VALID,1000.79,VALID,0,VALID,93.6307,VALID,0.112286,VALID,23.5628,VALID,169,VALID,1.02109,
2010-11-07, 00:10:05,VALID,1000.77,VALID,0,VALID,93.6154,VALID,0.112286,VALID,23.5628,VALID,175,VALID,1.0793,
2010-11-07, 00:11:05,VALID,1000.76,VALID,0,VALID,93.6154,VALID,0,VALID,23.5823,VALID,175,VALID,1.07578,
2010-11-07, 00:12:05,VALID,1000.74,VALID,0,VALID,93.6078,VALID,0,VALID,23.6232,VALID,192,VALID,1.09687,
2010-11-07, 00:13:05,VALID,1000.71,VALID,0,VALID,93.5849,VALID,0,VALID,23.6427,VALID,189,VALID,0.559375,
2010-11-07, 00:14:05,VALID,1000.67,VALID,0,VALID,93.5773,VALID,0,VALID,23.6622,VALID,188,VALID,0.35625,
2010-11-07, 00:15:05,VALID,1000.65,VALID,0,VALID,93.5773,VALID,0,VALID,23.6214,VALID,175,VALID,0.554297,
2010-11-07, 00:16:05,VALID,1000.66,VALID,0,VALID,93.5773,VALID,0,VALID,23.6409,VALID,175,VALID,0.835156,
2010-11-07, 00:17:05,VALID,1000.65,VALID,0,VALID,93.5468,VALID,0.112286,VALID,23.6817,VALID,175,VALID,0.929688,
2010-11-07, 00:18:05,VALID,1000.64,VALID,0,VALID,93.5544,VALID,0,VALID,23.6994,VALID,175,VALID,1.19727,
2010-11-07, 00:19:05,VALID,1000.6,VALID,0,VALID,93.5239,VALID,0,VALID,23.7402,VALID,175,VALID,1.24844,
2010-11-07, 00:20:05,VALID,1000.6,VALID,0,VALID,93.4934,VALID,0,VALID,23.7384,VALID,175,VALID,0.941016,
2010-11-07, 00:21:05,VALID,1000.59,VALID,0,VALID,93.501,VALID,0,VALID,23.7597,VALID,175,VALID,0.747656,
2010-11-07, 00:22:05,VALID,1000.57,VALID,0,VALID,93.4705,VALID,0,VALID,23.7384,VALID,174,VALID,0.779297,
2010-11-07, 00:23:05,VALID,1000.55,VALID,0,VALID,93.4781,VALID,0,VALID,23.7384,VALID,151,VALID,0.771875,
2010-11-07, 00:24:05,VALID,1000.52,VALID,0,VALID,93.4552,VALID,0,VALID,23.7597,VALID,147,VALID,0.806641,
2010-11-07, 00:25:05,VALID,1000.51,VALID,0,VALID,93.4171,VALID,0,VALID,23.7597,VALID,146,VALID,0.725391,
2010-11-07, 00:26:05,VALID,1000.5,VALID,0,VALID,93.4018,VALID,0,VALID,23.7597,VALID,140,VALID,0.980078,
2010-11-07, 00:27:05,VALID,1000.49,VALID,0,VALID,93.3789,VALID,0,VALID,23.7384,VALID,129,VALID,1.1,
2010-11-07, 00:28:05,VALID,1000.49,VALID,0,VALID,93.3637,VALID,0,VALID,23.7597,VALID,130,VALID,0.769922,
2010-11-07, 00:29:05,VALID,1000.46,VALID,0,VALID,93.3484,VALID,0,VALID,23.7402,VALID,115,VALID,1.03086,
2010-11-07, 00:30:05,VALID,1000.44,VALID,0,VALID,93.3255,VALID,0,VALID,23.7189,VALID,112,VALID,0.60625,
2010-11-07, 00:31:05,VALID,1000.45,VALID,0,VALID,93.3103,VALID,0,VALID,23.7597,VALID,93,VALID,0.953516,
2010-11-07, 00:32:05,VALID,1000.44,VALID,0,VALID,93.2721,VALID,0,VALID,23.7189,VALID,89,VALID,0.865234,
2010-11-07, 00:33:05,VALID,1000.44,VALID,0,VALID,93.2797,VALID,0,VALID,23.7384,VALID,89,VALID,0.653516,
2010-11-07, 00:34:05,VALID,1000.38,VALID,0,VALID,93.2721,VALID,0,VALID,23.7384,VALID,72,VALID,0.778125,
2010-11-07, 00:35:05,VALID,1000.36,VALID,0,VALID,93.2645,VALID,0,VALID,23.7189,VALID,67,VALID,0.774609,
2010-11-07, 00:36:05,VALID,1000.36,VALID,0,VALID,93.2416,VALID,0,VALID,23.6994,VALID,36,VALID,1.17461,
2010-11-07, 00:37:05,VALID,1000.37,VALID,0,VALID,93.2187,VALID,0,VALID,23.6799,VALID,33,VALID,1.50977,
2010-11-07, 00:38:05,VALID,1000.33,VALID,0,VALID,93.1805,VALID,0,VALID,23.6604,VALID,39,VALID,1.27266,
2010-11-07, 00:39:05,VALID,1000.35,VALID,0,VALID,93.1729,VALID,0,VALID,23.6817,VALID,45,VALID,1.23008,
2010-11-07, 00:40:05,VALID,1000.31,VALID,0,VALID,93.1348,VALID,0,VALID,23.6427,VALID,47,VALID,1.22812,
2010-11-07, 00:41:05,VALID,1000.31,VALID,0,VALID,93.1195,VALID,0,VALID,23.6232,VALID,44,VALID,0.963672,
2010-11-07, 00:42:05,VALID,1000.25,VALID,0,VALID,93.089,VALID,0,VALID,23.6232,VALID,50,VALID,1.11172,
2010-11-07, 00:43:05,VALID,1000.25,VALID,0,VALID,93.0508,VALID,0,VALID,23.6232,VALID,55,VALID,1.01836,
2010-11-07, 00:44:05,VALID,1000.25,VALID,0,VALID,93.0661,VALID,0,VALID,23.6232,VALID,57,VALID,0.683594,
2010-11-07, 00:45:05,VALID,1000.17,VALID,0,VALID,93.0661,VALID,0,VALID,23.6036,VALID,57,VALID,0.04375,
2010-11-07, 00:46:05,VALID,1000.22,VALID,0,VALID,93.028,VALID,0,VALID,23.5823,VALID,57,VALID,0,
2010-11-07, 00:47:05,VALID,1000.17,VALID,0,VALID,93.028,VALID,0,VALID,23.5823,VALID,57,VALID,0.0558594,
2010-11-07, 00:48:05,VALID,1000.14,VALID,0,VALID,93.0127,VALID,0,VALID,23.5841,VALID,57,VALID,0.1625,
2010-11-07, 00:49:05,VALID,1000.13,VALID,0,VALID,93.0127,VALID,0,VALID,23.5823,VALID,57,VALID,0.160156,
2010-11-07, 00:50:05,VALID,1000.12,VALID,0,VALID,93.0127,VALID,0,VALID,23.6019,VALID,57,VALID,0.00820312,
2010-11-07, 00:51:05,VALID,1000.06,VALID,0,VALID,93.0051,VALID,0,VALID,23.6036,VALID,57,VALID,0.338281,
2010-11-07, 00:52:05,VALID,1000.04,VALID,0,VALID,92.9898,VALID,0,VALID,23.5823,VALID,57,VALID,0.198828,
2010-11-07, 00:53:05,VALID,1000.01,VALID,0,VALID,93.0051,VALID,0,VALID,23.6036,VALID,57,VALID,0,
2010-11-07, 00:54:05,VALID,999.978,VALID,0,VALID,92.9974,VALID,0,VALID,23.6232,VALID,57,VALID,0,
2010-11-07, 00:55:05,VALID,999.913,VALID,0,VALID,92.9898,VALID,0,VALID,23.6036,VALID,57,VALID,0,
2010-11-07, 00:56:05,VALID,999.928,VALID,0,VALID,92.9822,VALID,0,VALID,23.6019,VALID,57,VALID,0.109375,
2010-11-07, 00:57:05,VALID,999.882,VALID,0,VALID,92.9822,VALID,0,VALID,23.6019,VALID,57,VALID,0.312891,
2010-11-07, 00:58:05,VALID,999.852,VALID,0,VALID,92.9822,VALID,0,VALID,23.5841,VALID,130,VALID,0.790234,
2010-11-07, 00:59:05,VALID,999.835,VALID,0,VALID,92.9135,VALID,0,VALID,23.5646,VALID,130,VALID,0.933203,
2010-11-07, 01:00:05,VALID,999.796,VALID,0,VALID,92.883,VALID,0,VALID,23.6036,VALID,130,VALID,0.708594,
2010-11-07, 01:01:05,VALID,999.778,VALID,0,VALID,92.8067,VALID,0,VALID,23.6232,VALID,130,VALID,0.496875,
2010-11-07, 01:02:05,VALID,999.765,VALID,0,VALID,92.738,VALID,0,VALID,23.6214,VALID,130,VALID,0.382031,
2010-11-07, 01:03:05,VALID,999.756,VALID,0,VALID,92.6694,VALID,0,VALID,23.6214,VALID,130,VALID,0.249609,
2010-11-07, 01:04:05,VALID,999.742,VALID,0,VALID,92.6083,VALID,0,VALID,23.6622,VALID,130,VALID,0.323047,
2010-11-07, 01:05:05,VALID,999.721,VALID,0,VALID,92.5778,VALID,0,VALID,23.6622,VALID,130,VALID,0.559766,
2010-11-07, 01:06:05,VALID,999.739,VALID,0,VALID,92.4863,VALID,0,VALID,23.6622,VALID,81,VALID,0.795703,
2010-11-07, 01:07:05,VALID,999.738,VALID,0,VALID,92.4405,VALID,0,VALID,23.6817,VALID,80,VALID,0.603125,
2010-11-07, 01:08:05,VALID,999.708,VALID,0,VALID,92.4023,VALID,0,VALID,23.6799,VALID,80,VALID,0.659766,
2010-11-07, 01:09:05,VALID,999.701,VALID,0,VALID,92.3794,VALID,0,VALID,23.7012,VALID,80,VALID,0.480859,
2010-11-07, 01:10:05,VALID,999.731,VALID,0,VALID,92.3642,VALID,0,VALID,23.6604,VALID,80,VALID,0.382031,
2010-11-07, 01:11:05,VALID,999.706,VALID,0,VALID,92.3642,VALID,0,VALID,23.6817,VALID,6,VALID,0.575,
2010-11-07, 01:12:05,VALID,999.697,VALID,0,VALID,92.3337,VALID,0,VALID,23.6604,VALID,6,VALID,0.483203,
2010-11-07, 01:13:05,VALID,999.655,VALID,0,VALID,92.3184,VALID,0,VALID,23.6427,VALID,6,VALID,0.274609,
2010-11-07, 01:14:05,VALID,999.667,VALID,0,VALID,92.3413,VALID,0,VALID,23.6427,VALID,6,VALID,0.407422,
2010-11-07, 01:15:05,VALID,999.634,VALID,0,VALID,92.3413,VALID,0,VALID,23.6214,VALID,6,VALID,0.541797,
2010-11-07, 01:16:05,VALID,999.61,VALID,0,VALID,92.3566,VALID,0,VALID,23.6232,VALID,6,VALID,0.441016,
2010-11-07, 01:17:05,VALID,999.586,VALID,0,VALID,92.3642,VALID,0,VALID,23.6214,VALID,6,VALID,0.583203,
2010-11-07, 01:18:05,VALID,999.543,VALID,0,VALID,92.4023,VALID,0,VALID,23.5823,VALID,6,VALID,0.621875,
2010-11-07, 01:19:05,VALID,999.563,VALID,0,VALID,92.3718,VALID,0,VALID,23.5646,VALID,6,VALID,0.644141,
2010-11-07, 01:20:05,VALID,999.555,VALID,0,VALID,92.4023,VALID,0,VALID,23.5238,VALID,10,VALID,0.696484,
2010-11-07, 01:21:05,VALID,999.538,VALID,0,VALID,92.3947,VALID,0,VALID,23.4848,VALID,14,VALID,0.887109,
2010-11-07, 01:22:05,VALID,999.516,VALID,0,VALID,92.3794,VALID,0,VALID,23.5061,VALID,14,VALID,0.808984,
2010-11-07, 01:23:05,VALID,999.544,VALID,0,VALID,92.3566,VALID,0,VALID,23.4653,VALID,14,VALID,0.707812,
2010-11-07, 01:24:05,VALID,999.52,VALID,0,VALID,92.3413,VALID,0,VALID,23.4671,VALID,14,VALID,0.623438,
2010-11-07, 01:25:05,VALID,999.538,VALID,0,VALID,92.3566,VALID,0,VALID,23.4458,VALID,14,VALID,0.485547,
2010-11-07, 01:26:05,VALID,999.519,VALID,0,VALID,92.3566,VALID,0,VALID,23.4458,VALID,14,VALID,0.361328,
2010-11-07, 01:27:05,VALID,999.506,VALID,0,VALID,92.3794,VALID,0,VALID,23.4263,VALID,14,VALID,0.380859,
2010-11-07, 01:28:05,VALID,999.494,VALID,0,VALID,92.4023,VALID,0,VALID,23.4475,VALID,14,VALID,0.308594,
2010-11-07, 01:29:05,VALID,999.491,VALID,0,VALID,92.4634,VALID,0,VALID,23.428,VALID,42,VALID,0.878125,
2010-11-07, 01:30:05,VALID,999.496,VALID,0,VALID,92.4557,VALID,0,VALID,23.4671,VALID,52,VALID,0.922266,
2010-11-07, 01:31:05,VALID,999.478,VALID,0,VALID,92.4634,VALID,0,VALID,23.4653,VALID,61,VALID,1.02266,
2010-11-07, 01:32:05,VALID,999.487,VALID,0,VALID,92.471,VALID,0,VALID,23.4866,VALID,67,VALID,1.03672,
2010-11-07, 01:33:05,VALID,999.455,VALID,0,VALID,92.4557,VALID,0,VALID,23.4866,VALID,67,VALID,0.992578,
2010-11-07, 01:34:05,VALID,999.471,VALID,0,VALID,92.4328,VALID,0,VALID,23.4653,VALID,67,VALID,0.969141,
2010-11-07, 01:35:05,VALID,999.47,VALID,0,VALID,92.4023,VALID,0,VALID,23.5061,VALID,67,VALID,0.907031,
2010-11-07, 01:36:05,VALID,999.444,VALID,0,VALID,92.3947,VALID,0,VALID,23.4848,VALID,67,VALID,0.880859,
2010-11-07, 01:37:05,VALID,999.481,VALID,0,VALID,92.3794,VALID,0,VALID,23.5043,VALID,66,VALID,0.833984,
2010-11-07, 01:38:05,VALID,999.46,VALID,0,VALID,92.3947,VALID,0,VALID,23.5061,VALID,66,VALID,0.732422,
2010-11-07, 01:39:05,VALID,999.474,VALID,0,VALID,92.3794,VALID,0,VALID,23.4848,VALID,66,VALID,0.713281,
2010-11-07, 01:40:05,VALID,999.445,VALID,0,VALID,92.3871,VALID,0,VALID,23.5043,VALID,66,VALID,0.605078,
2010-11-07, 01:41:05,VALID,999.437,VALID,0,VALID,92.4023,VALID,0,VALID,23.5043,VALID,66,VALID,0.455078,
2010-11-07, 01:42:05,VALID,999.424,VALID,0,VALID,92.4023,VALID,0,VALID,23.5061,VALID,66,VALID,0.371094,
2010-11-07, 01:43:05,VALID,999.404,VALID,0,VALID,92.4023,VALID,0,VALID,23.4866,VALID,66,VALID,0.322656,
2010-11-07, 01:44:05,VALID,999.371,VALID,0,VALID,92.4176,VALID,0,VALID,23.4866,VALID,66,VALID,0.325391,
2010-11-07, 01:45:05,VALID,999.332,VALID,0,VALID,92.41,VALID,0,VALID,23.4653,VALID,66,VALID,0,
2010-11-07, 01:46:05,VALID,999.321,VALID,0,VALID,92.4405,VALID,0,VALID,23.4866,VALID,66,VALID,0,
2010-11-07, 01:47:05,VALID,999.307,VALID,0,VALID,92.4481,VALID,0,VALID,23.4671,VALID,66,VALID,0,
2010-11-07, 01:48:05,VALID,999.306,VALID,0,VALID,92.4557,VALID,0,VALID,23.4458,VALID,66,VALID,0.126563,
2010-11-07, 01:49:05,VALID,999.304,VALID,0,VALID,92.4863,VALID,0,VALID,23.4671,VALID,66,VALID,0.237109,
2010-11-07, 01:50:05,VALID,999.291,VALID,0,VALID,92.5015,VALID,0,VALID,23.4458,VALID,66,VALID,0.0605469,
2010-11-07, 01:51:05,VALID,999.296,VALID,0,VALID,92.5168,VALID,0,VALID,23.4671,VALID,66,VALID,0.2625,
2010-11-07, 01:52:05,VALID,999.293,VALID,0,VALID,92.5168,VALID,0,VALID,23.4671,VALID,66,VALID,0,
2010-11-07, 01:53:05,VALID,999.301,VALID,0,VALID,92.5091,VALID,0,VALID,23.4671,VALID,66,VALID,0.266406,
2010-11-07, 01:54:05,VALID,999.318,VALID,0,VALID,92.5168,VALID,0,VALID,23.4475,VALID,66,VALID,0.466016,
2010-11-07, 01:55:05,VALID,999.313,VALID,0,VALID,92.5168,VALID,0,VALID,23.4671,VALID,66,VALID,0.475,
2010-11-07, 01:56:05,VALID,999.306,VALID,0,VALID,92.4939,VALID,0,VALID,23.4671,VALID,66,VALID,0.519141,
2010-11-07, 01:57:05,VALID,999.315,VALID,0,VALID,92.4557,VALID,0,VALID,23.4866,VALID,66,VALID,0.302344,
2010-11-07, 01:58:05,VALID,999.311,VALID,0,VALID,92.4176,VALID,0,VALID,23.5061,VALID,66,VALID,0.300391,
2010-11-07, 01:59:05,VALID,999.334,VALID,0,VALID,92.3413,VALID,0,VALID,23.4848,VALID,82,VALID,0.425391,
2010-11-07, 02:00:05,VALID,999.325,VALID,0,VALID,92.3031,VALID,0,VALID,23.5061,VALID,130,VALID,0.328906,
2010-11-07, 02:01:05,VALID,999.311,VALID,0,VALID,92.2268,VALID,0,VALID,23.4848,VALID,130,VALID,0.0234375,
2010-11-07, 02:02:05,VALID,999.296,VALID,0,VALID,92.1582,VALID,0,VALID,23.4866,VALID,130,VALID,0.00273437,
2010-11-07, 02:03:05,VALID,999.268,VALID,0,VALID,92.1277,VALID,0,VALID,23.4653,VALID,130,VALID,0,
2010-11-07, 02:04:05,VALID,999.278,VALID,0,VALID,92.1048,VALID,0,VALID,23.4866,VALID,130,VALID,0.28125,
2010-11-07, 02:05:05,VALID,999.26,VALID,0,VALID,92.0819,VALID,0,VALID,23.4458,VALID,130,VALID,0.442187,
2010-11-07, 02:06:05,VALID,999.247,VALID,0,VALID,92.0361,VALID,0,VALID,23.4866,VALID,129,VALID,0.489062,
2010-11-07, 02:07:05,VALID,999.256,VALID,0,VALID,91.9674,VALID,0,VALID,23.4671,VALID,129,VALID,0.366016,
2010-11-07, 02:08:05,VALID,999.22,VALID,0,VALID,91.9674,VALID,0,VALID,23.4653,VALID,129,VALID,0.413281,
2010-11-07, 02:09:05,VALID,999.244,VALID,0,VALID,91.9064,VALID,0,VALID,23.4458,VALID,45,VALID,0.646484,
2010-11-07, 02:10:05,VALID,999.196,VALID,0,VALID,91.8759,VALID,0,VALID,23.4671,VALID,17,VALID,0.880078,
2010-11-07, 02:11:05,VALID,999.202,VALID,0,VALID,91.8606,VALID,0,VALID,23.4671,VALID,18,VALID,1.02656,
2010-11-07, 02:12:05,VALID,999.223,VALID,0,VALID,91.7614,VALID,0,VALID,23.4475,VALID,18,VALID,1.01094,
2010-11-07, 02:13:05,VALID,999.221,VALID,0,VALID,91.7385,VALID,0,VALID,23.428,VALID,18,VALID,1.02344,
2010-11-07, 02:14:05,VALID,999.219,VALID,0,VALID,91.6775,VALID,0,VALID,23.3677,VALID,33,VALID,1.15352,
2010-11-07, 02:15:05,VALID,999.212,VALID,0,VALID,91.647,VALID,0,VALID,23.3677,VALID,33,VALID,1.04805,
2010-11-07, 02:16:05,VALID,999.227,VALID,0,VALID,91.6623,VALID,0,VALID,23.3695,VALID,31,VALID,1.09063,
2010-11-07, 02:17:05,VALID,999.201,VALID,0,VALID,91.7157,VALID,0,VALID,23.3305,VALID,22,VALID,1.12383,
2010-11-07, 02:18:05,VALID,999.218,VALID,0,VALID,91.7843,VALID,0,VALID,23.3305,VALID,22,VALID,1.10586,
2010-11-07, 02:19:04,VALID,999.169,VALID,0,VALID,91.853,VALID,0,VALID,23.2915,VALID,22,VALID,1.17344,
2010-11-07, 02:20:04,VALID,999.206,VALID,0,VALID,91.914,VALID,0,VALID,23.2507,VALID,22,VALID,1.03203,
2010-11-07, 02:21:04,VALID,999.175,VALID,0,VALID,92.0209,VALID,0,VALID,23.2524,VALID,22,VALID,1.07734,
2010-11-07, 02:22:04,VALID,999.15,VALID,0,VALID,92.059,VALID,0,VALID,23.2117,VALID,22,VALID,1.05898,
2010-11-07, 02:23:04,VALID,999.145,VALID,0,VALID,92.1353,VALID,0,VALID,23.2329,VALID,22,VALID,1.11094,
2010-11-07, 02:24:04,VALID,999.137,VALID,0,VALID,92.1811,VALID,0,VALID,23.2347,VALID,25,VALID,1.29961,
2010-11-07, 02:25:04,VALID,999.143,VALID,0,VALID,92.2192,VALID,0,VALID,23.2152,VALID,28,VALID,1.2543,
2010-11-07, 02:26:04,VALID,999.131,VALID,0,VALID,92.2497,VALID,0,VALID,23.1939,VALID,29,VALID,0.909766,
2010-11-07, 02:27:04,VALID,999.091,VALID,0,VALID,92.3108,VALID,0,VALID,23.2134,VALID,29,VALID,0.837109,
2010-11-07, 02:28:04,VALID,999.065,VALID,0,VALID,92.3184,VALID,0,VALID,23.2152,VALID,29,VALID,0.488672,
2010-11-07, 02:29:04,VALID,999.073,VALID,0,VALID,92.3794,VALID,0,VALID,23.2347,VALID,29,VALID,0.495313,
2010-11-07, 02:30:04,VALID,999.027,VALID,0,VALID,92.3871,VALID,0,VALID,23.2152,VALID,29,VALID,0.535937,
2010-11-07, 02:31:04,VALID,999.025,VALID,0,VALID,92.4023,VALID,0,VALID,23.1939,VALID,29,VALID,0.642187,
2010-11-07, 02:32:04,VALID,999.02,VALID,0,VALID,92.4557,VALID,0,VALID,23.1939,VALID,26,VALID,0.630078,
2010-11-07, 02:33:04,VALID,998.988,VALID,0,VALID,92.5015,VALID,0,VALID,23.2152,VALID,26,VALID,0.813281,
2010-11-07, 02:34:04,VALID,998.997,VALID,0,VALID,92.5015,VALID,0,VALID,23.1744,VALID,26,VALID,0.795703,
2010-11-07, 02:35:04,VALID,998.997,VALID,0,VALID,92.5091,VALID,0,VALID,23.1762,VALID,26,VALID,0.898828,
2010-11-07, 02:36:04,VALID,998.983,VALID,0,VALID,92.4939,VALID,0,VALID,23.1762,VALID,26,VALID,0.719531,
2010-11-07, 02:37:04,VALID,999.006,VALID,0,VALID,92.4863,VALID,0,VALID,23.1159,VALID,26,VALID,0.868359,
2010-11-07, 02:38:04,VALID,999.067,VALID,0,VALID,92.4863,VALID,0,VALID,23.1371,VALID,27,VALID,0.959375,
2010-11-07, 02:39:04,VALID,999.07,VALID,0,VALID,92.4786,VALID,0,VALID,23.1159,VALID,29,VALID,0.817578,
2010-11-07, 02:40:04,VALID,999.085,VALID,0,VALID,92.4786,VALID,0,VALID,23.1141,VALID,36,VALID,1.09258,
2010-11-07, 02:41:04,VALID,999.098,VALID,0,VALID,92.4863,VALID,0,VALID,23.1549,VALID,37,VALID,1.08984,
2010-11-07, 02:42:04,VALID,999.105,VALID,0,VALID,92.4786,VALID,0,VALID,23.1336,VALID,37,VALID,1.01133,
2010-11-07, 02:43:04,VALID,999.117,VALID,0,VALID,92.4557,VALID,0.112286,VALID,23.1336,VALID,36,VALID,1.06094,
2010-11-07, 02:44:04,VALID,999.121,VALID,0,VALID,92.4405,VALID,0.112286,VALID,23.1336,VALID,30,VALID,1.26016,
2010-11-07, 02:45:04,VALID,999.117,VALID,0,VALID,92.3871,VALID,0,VALID,23.1549,VALID,35,VALID,1.5082,
2010-11-07, 02:46:04,VALID,999.137,VALID,0,VALID,92.326,VALID,0.112286,VALID,23.1744,VALID,37,VALID,1.25742,
2010-11-07, 02:47:04,VALID,999.138,VALID,0,VALID,92.2726,VALID,0,VALID,23.1744,VALID,37,VALID,1.21445,
2010-11-07, 02:48:04,VALID,999.15,VALID,0,VALID,92.2345,VALID,0,VALID,23.1531,VALID,32,VALID,0.992188,
2010-11-07, 02:49:04,VALID,999.152,VALID,0,VALID,92.204,VALID,0,VALID,23.1549,VALID,32,VALID,0.930469,
2010-11-07, 02:50:04,VALID,999.138,VALID,0,VALID,92.1658,VALID,0.112286,VALID,23.1354,VALID,32,VALID,0.683594,
2010-11-07, 02:51:04,VALID,999.168,VALID,0,VALID,92.1582,VALID,0.112286,VALID,23.1549,VALID,32,VALID,0.669531,
2010-11-07, 02:52:04,VALID,999.181,VALID,0,VALID,92.1506,VALID,0,VALID,23.1159,VALID,32,VALID,0.581641,
2010-11-07, 02:53:04,VALID,999.18,VALID,0,VALID,92.1429,VALID,0.112286,VALID,23.0946,VALID,32,VALID,0.442187,
2010-11-07, 02:54:04,VALID,999.166,VALID,0,VALID,92.1429,VALID,0,VALID,23.1159,VALID,32,VALID,0.233203,
2010-11-07, 02:55:04,VALID,999.188,VALID,0,VALID,92.1353,VALID,0,VALID,23.0964,VALID,32,VALID,0.296094,
2010-11-07, 02:56:04,VALID,999.202,VALID,0,VALID,92.1887,VALID,0,VALID,23.0556,VALID,32,VALID,0.212109,
2010-11-07, 02:57:04,VALID,999.234,VALID,0,VALID,92.204,VALID,0,VALID,23.0556,VALID,32,VALID,0.0140625,
2010-11-07, 02:58:04,VALID,999.222,VALID,0,VALID,92.2497,VALID,0,VALID,23.0769,VALID,32,VALID,0.408203,
2010-11-07, 02:59:04,VALID,999.254,VALID,0,VALID,92.2879,VALID,0,VALID,23.0964,VALID,32,VALID,0.437109,
2010-11-07, 03:00:04,VALID,999.277,VALID,0,VALID,92.3794,VALID,0,VALID,23.0964,VALID,32,VALID,0.516406,
2010-11-07, 03:01:04,VALID,999.276,VALID,0,VALID,92.4176,VALID,0,VALID,23.0946,VALID,32,VALID,0.445313,
2010-11-07, 03:02:04,VALID,999.27,VALID,0,VALID,92.4328,VALID,0,VALID,23.0946,VALID,32,VALID,0.465625,
2010-11-07, 03:03:04,VALID,999.283,VALID,0,VALID,92.4863,VALID,0,VALID,23.1159,VALID,32,VALID,0.528125,
2010-11-07, 03:04:04,VALID,999.283,VALID,0,VALID,92.5015,VALID,0,VALID,23.1159,VALID,32,VALID,0.601953,
2010-11-07, 03:05:04,VALID,999.295,VALID,0,VALID,92.532,VALID,0,VALID,23.1159,VALID,124,VALID,0.785156,
2010-11-07, 03:06:04,VALID,999.281,VALID,0,VALID,92.5778,VALID,0,VALID,23.1159,VALID,145,VALID,1.02773,
2010-11-07, 03:07:04,VALID,999.279,VALID,0,VALID,92.5854,VALID,0,VALID,23.1549,VALID,149,VALID,1.16406,
2010-11-07, 03:08:04,VALID,999.283,VALID,0,VALID,92.5931,VALID,0,VALID,23.1336,VALID,150,VALID,1.14609,
2010-11-07, 03:09:04,VALID,999.272,VALID,0,VALID,92.6007,VALID,0,VALID,23.1744,VALID,150,VALID,0.938672,
2010-11-07, 03:10:04,VALID,999.269,VALID,0,VALID,92.5778,VALID,0,VALID,23.1939,VALID,150,VALID,0.909766,
2010-11-07, 03:11:04,VALID,999.277,VALID,0,VALID,92.5397,VALID,0,VALID,23.2134,VALID,155,VALID,0.71875,
2010-11-07, 03:12:04,VALID,999.251,VALID,0,VALID,92.5168,VALID,0,VALID,23.2134,VALID,155,VALID,0.669141,
2010-11-07, 03:13:04,VALID,999.261,VALID,0,VALID,92.5091,VALID,0,VALID,23.2117,VALID,155,VALID,0.440625,
2010-11-07, 03:14:04,VALID,999.266,VALID,0,VALID,92.4634,VALID,0,VALID,23.2312,VALID,155,VALID,0.487109,
2010-11-07, 03:15:04,VALID,999.242,VALID,0,VALID,92.4176,VALID,0,VALID,23.2524,VALID,155,VALID,0.482812,
2010-11-07, 03:16:04,VALID,999.253,VALID,0,VALID,92.3871,VALID,0.112286,VALID,23.2719,VALID,155,VALID,0.461328,
2010-11-07, 03:17:04,VALID,999.226,VALID,0,VALID,92.326,VALID,0,VALID,23.2719,VALID,155,VALID,0.4875,
2010-11-07, 03:18:04,VALID,999.221,VALID,0,VALID,92.265,VALID,0,VALID,23.2719,VALID,155,VALID,0.454688,
2010-11-07, 03:19:04,VALID,999.182,VALID,0,VALID,92.2421,VALID,0,VALID,23.2507,VALID,155,VALID,0.297656,
2010-11-07, 03:20:04,VALID,999.148,VALID,0,VALID,92.1582,VALID,0,VALID,23.2719,VALID,155,VALID,0.234375,
2010-11-07, 03:21:04,VALID,999.173,VALID,0,VALID,92.1353,VALID,0,VALID,23.2719,VALID,155,VALID,0.341016,
2010-11-07, 03:22:04,VALID,999.158,VALID,0,VALID,92.1429,VALID,0,VALID,23.2719,VALID,155,VALID,0.173828,
2010-11-07, 03:23:04,VALID,999.132,VALID,0,VALID,92.1353,VALID,0,VALID,23.2524,VALID,155,VALID,0.0554687,
2010-11-07, 03:24:04,VALID,999.139,VALID,0,VALID,92.1048,VALID,0,VALID,23.2524,VALID,155,VALID,0.148828,
2010-11-07, 03:25:04,VALID,999.136,VALID,0,VALID,92.1429,VALID,0,VALID,23.2524,VALID,155,VALID,0.351172,
2010-11-07, 03:26:04,VALID,999.134,VALID,0,VALID,92.1658,VALID,0,VALID,23.2524,VALID,155,VALID,0.164844,
2010-11-07, 03:27:04,VALID,999.147,VALID,0,VALID,92.1658,VALID,0,VALID,23.2524,VALID,155,VALID,0.0964844,
2010-11-07, 03:28:04,VALID,999.148,VALID,0,VALID,92.204,VALID,0,VALID,23.2524,VALID,155,VALID,0,
2010-11-07, 03:29:04,VALID,999.169,VALID,0,VALID,92.2192,VALID,0,VALID,23.2329,VALID,155,VALID,0.307031,
2010-11-07, 03:30:04,VALID,999.176,VALID,0,VALID,92.2116,VALID,0,VALID,23.2134,VALID,151,VALID,0.497266,
2010-11-07, 03:31:04,VALID,999.201,VALID,0,VALID,92.2268,VALID,0,VALID,23.1939,VALID,94,VALID,0.636719,
2010-11-07, 03:32:04,VALID,999.182,VALID,0,VALID,92.1811,VALID,0,VALID,23.1939,VALID,93,VALID,0.554297,
2010-11-07, 03:33:04,VALID,999.209,VALID,0,VALID,92.1429,VALID,0,VALID,23.1354,VALID,19,VALID,0.756641,
2010-11-07, 03:34:04,VALID,999.222,VALID,0,VALID,92.1506,VALID,0,VALID,23.1141,VALID,19,VALID,0.619141,
2010-11-07, 03:35:04,VALID,999.221,VALID,0,VALID,92.1506,VALID,0,VALID,23.0964,VALID,19,VALID,0.350781,
2010-11-07, 03:36:04,VALID,999.226,VALID,0,VALID,92.1963,VALID,0,VALID,23.0964,VALID,19,VALID,0.278516,
2010-11-07, 03:37:04,VALID,999.204,VALID,0,VALID,92.204,VALID,0,VALID,23.0556,VALID,19,VALID,0.478516,
2010-11-07, 03:38:04,VALID,999.209,VALID,0,VALID,92.2116,VALID,0,VALID,23.0378,VALID,19,VALID,0.754687,
2010-11-07, 03:39:04,VALID,999.22,VALID,0,VALID,92.2574,VALID,0,VALID,23.0183,VALID,23,VALID,0.998828,
2010-11-07, 03:40:04,VALID,999.24,VALID,0,VALID,92.3108,VALID,0,VALID,23.0166,VALID,26,VALID,1.2043,
2010-11-07, 03:41:04,VALID,999.236,VALID,0,VALID,92.3413,VALID,0,VALID,22.9776,VALID,26,VALID,1.02617,
2010-11-07, 03:42:04,VALID,999.214,VALID,0,VALID,92.3794,VALID,0,VALID,22.9385,VALID,27,VALID,1.00977,
2010-11-07, 03:43:04,VALID,999.247,VALID,0,VALID,92.4252,VALID,0,VALID,22.9403,VALID,31,VALID,0.851563,
2010-11-07, 03:44:04,VALID,999.238,VALID,0,VALID,92.4481,VALID,0,VALID,22.9208,VALID,32,VALID,0.60625,
2010-11-07, 03:45:04,VALID,999.211,VALID,0,VALID,92.4786,VALID,0,VALID,22.8818,VALID,32,VALID,0.664453,
2010-11-07, 03:46:04,VALID,999.2,VALID,0,VALID,92.5168,VALID,0,VALID,22.8818,VALID,32,VALID,0.619531,